Regional Weather Roundup
Issued by NWS

Home | Current Version | Previous Version | Text Only | Print | Product List | Glossary Off
Versions: 1 2 3 4 5 6 7 8 9 10 11 12 13 14 15 16 17 18 19 20 21 22 23 24 25 26 27 28 29 30 31 32 33 34 35 36 37 38 39 40 41 42 43 44 45 46 47 48 49 50

000
ASUS45 KCYS 171910
RWRWY

WYOMING REGIONAL WEATHER ROUNDUP
NATIONAL WEATHER SERVICE CHEYENNE WY
1200 PM MST TUE JAN 17 2017

NOTE:  "FAIR" INDICATES FEW OR NO CLOUDS BELOW 12,000 FEET
WITH NO SIGNIFICANT WEATHER AND/OR OBSTRUCTIONS TO VISIBILITY.

WYZ001-172000-
YELLOWSTONE NATIONAL PARK

CITY           SKY/WX    TMP DP  RH WIND       PRES   REMARKS
LK YELLOWSTONE   N/A      3  -2  79 CALM      30.18F
W YELLOWSTONE  NOT AVBL

$$
WYZ002>013-054>058-071-098>099-172000-
NORTHERN WYOMING

CITY           SKY/WX    TMP DP  RH WIND       PRES   REMARKS
JACKSON        SUNNY      1   0  92 CALM      30.24F
CODY           FAIR      19   6  57 NE5       29.98F WCI  12
GREYBULL       FLURRIES   2  -6  69 N5        30.07F WCI  -8
WORLAND        FAIR      12   4  70 CALM      30.04F
SHERIDAN       FAIR      24  13  62 S5        29.88F WCI  18
BUFFALO        FAIR      39  11  31 CALM      29.90F
GILLETTE       FAIR      38  18  44 SW17      29.90F WCI  28
HULETT         FAIR      37  14  38 SW13      29.91F WCI  29
NEWCASTLE      FAIR      30  10  43 CALM      29.97F

$$
WYZ014>020-022>026-101>103-172000-
CENTRAL WYOMING

CITY           SKY/WX    TMP DP  RH WIND       PRES   REMARKS
BIG PINEY      FAIR      -4  -9  79 N3        30.17F
PINEDALE       FAIR       1  -4  78 E5        30.16F WCI  -8
DUBOIS         NOT AVBL
LANDER         FAIR      14   6  70 CALM      30.08F
RIVERTON       FAIR      10   6  84 CALM      30.10F
CASPER         FAIR      32  10  40 SW30G46   30.02F WCI  18
DOUGLAS        FAIR      41  15  35 NW7       29.97F

$$
WYZ021-027>030-104>119-172000-
SOUTHERN WYOMING

CITY           SKY/WX    TMP DP  RH WIND       PRES   REMARKS
EVANSTON       FAIR      14   5  67 CALM      30.17F
ROCK SPRINGS   FAIR       1  -2  87 SW3       30.18F
RAWLINS        FAIR      17   8  67 SW6       30.16F WCI   9
LARAMIE        FAIR      13   9  84 N7        30.06F WCI   3
CHEYENNE       FAIR      47  12  24 W6        29.99F
TORRINGTON     FAIR      40  13  33 CALM      29.97F

$$



USA.gov is the U.S. government's official web portal to all federal, state and local government web resources and services.